{"data":{"norad_id":69296,"epoch":"2026-09-20T00:08:20.160960Z","epoch_age_seconds":71599,"freshness":"FRESH","line1":"1 69296U 26119A   26263.00578890  .00011685  00000+0  36362-3 0  9990","line2":"2 69296  97.2839 287.6870 0001200  89.5546 270.5834 15.33453543 18587","mean_motion":15.33453543,"eccentricity":0.00012,"inclination_deg":97.2839,"raan_deg":287.687,"arg_perigee_deg":89.5546,"mean_anomaly_deg":270.5834,"bstar":0.00036362,"rev_number":1858,"period_min":93.905681497389,"perigee_km":464.69651806785,"apogee_km":466.33899520944,"semimajor_km":6843.6547566386,"source":"CELESTRAK","updated_at":"2026-09-20T09:00:44.153659Z"}}